DLH1V LOWW-EDDF

Flight info

Callsign DLH1V
Flight time N/A
Altitude 30000
Route LUGEM DCT SUBEN T161 DEBHI DEBHI1B
Aircraft A346/H-SDE2E3FGHIJ3J4J5M1RWXY/LB1D1

Departure

Time N/A
Airport Vienna International Airport (LOWW)

Arrival

Time 2026-05-07 18:51
Airport Frankfurt Main Airport (EDDF)
Time Latitude Longitude Altitude Speed Heading
2026-05-07 17:50 48.14025 16.04370 14495 ft 354 kts 279°
2026-05-07 17:50 48.14473 16.00718 15358 ft 359 kts 279°
2026-05-07 17:50 48.14925 15.97005 16182 ft 365 kts 279°
2026-05-07 17:50 48.15381 15.93229 17000 ft 371 kts 278°
2026-05-07 17:51 48.15845 15.89389 17838 ft 376 kts 278°
2026-05-07 17:51 48.16313 15.85499 18643 ft 380 kts 278°
2026-05-07 17:51 48.16782 15.81582 19401 ft 384 kts 278°
2026-05-07 17:51 48.17256 15.77609 20170 ft 388 kts 278°
2026-05-07 17:52 48.17728 15.73648 20923 ft 391 kts 278°
2026-05-07 17:52 48.18207 15.69608 21679 ft 395 kts 278°
2026-05-07 17:52 48.18690 15.65533 22438 ft 399 kts 277°
2026-05-07 17:52 48.19179 15.61397 23184 ft 403 kts 277°
2026-05-07 17:53 48.19670 15.57229 23848 ft 407 kts 277°
2026-05-07 17:53 48.20162 15.53027 24460 ft 411 kts 277°
2026-05-07 17:53 48.20659 15.48785 25068 ft 414 kts 277°
2026-05-07 17:53 48.21159 15.44508 25684 ft 417 kts 277°
2026-05-07 17:54 48.21662 15.40198 26310 ft 421 kts 277°
2026-05-07 17:54 48.22167 15.35845 26909 ft 424 kts 277°
2026-05-07 17:54 48.22673 15.31464 27504 ft 427 kts 277°
2026-05-07 17:54 48.23175 15.27103 28135 ft 430 kts 277°
2026-05-07 17:55 48.23683 15.22678 28900 ft 428 kts 276°
2026-05-07 17:55 48.24188 15.18264 29631 ft 429 kts 276°
2026-05-07 17:55 48.24692 15.13819 30000 ft 432 kts 277°
2026-05-07 17:55 48.25192 15.09359 30003 ft 432 kts 277°
2026-05-07 17:56 48.26195 15.00461 30012 ft 432 kts 277°
2026-05-07 17:56 48.27193 14.91565 30013 ft 432 kts 277°
2026-05-07 17:57 48.28017 14.84157 30016 ft 431 kts 277°
2026-05-07 17:57 48.29160 14.73811 30016 ft 432 kts 277°
2026-05-07 17:58 48.30131 14.64931 30021 ft 429 kts 276°
2026-05-07 17:58 48.31088 14.56066 30018 ft 429 kts 276°
2026-05-07 17:59 48.32041 14.47203 30017 ft 429 kts 276°
2026-05-07 17:59 48.32989 14.38336 30018 ft 429 kts 276°
2026-05-07 18:00 48.33927 14.29470 30030 ft 428 kts 277°
2026-05-07 18:00 48.34853 14.20611 30008 ft 428 kts 277°
2026-05-07 18:01 48.35779 14.11811 30012 ft 428 kts 277°
2026-05-07 18:01 48.36701 14.02955 30023 ft 428 kts 277°
2026-05-07 18:02 48.38778 13.89915 30028 ft 431 kts 290°
2026-05-07 18:03 48.41097 13.81621 30028 ft 429 kts 291°
2026-05-07 18:03 48.43395 13.73334 30033 ft 428 kts 291°
2026-05-07 18:04 48.45281 13.66424 30036 ft 428 kts 291°
2026-05-07 18:04 48.47532 13.58095 30029 ft 428 kts 291°
2026-05-07 18:05 48.49771 13.49760 30037 ft 428 kts 291°
2026-05-07 18:05 48.51986 13.41449 30061 ft 425 kts 291°
2026-05-07 18:06 48.54203 13.33146 30041 ft 425 kts 291°
2026-05-07 18:06 48.56393 13.24897 30039 ft 425 kts 291°
2026-05-07 18:07 48.58588 13.16595 30035 ft 425 kts 291°
2026-05-07 18:07 48.60776 13.08279 30038 ft 425 kts 291°
2026-05-07 18:08 48.62956 12.99970 30036 ft 424 kts 291°
2026-05-07 18:08 48.65128 12.91671 30039 ft 424 kts 291°
2026-05-07 18:09 48.67295 12.83356 30040 ft 424 kts 291°
2026-05-07 18:09 48.69442 12.75090 30041 ft 424 kts 291°
2026-05-07 18:10 48.71597 12.66761 30043 ft 424 kts 291°
2026-05-07 18:10 48.73743 12.58433 30043 ft 423 kts 291°
2026-05-07 18:11 48.75883 12.50100 30044 ft 423 kts 291°
2026-05-07 18:11 48.78017 12.41761 30045 ft 423 kts 291°
2026-05-07 18:12 48.80131 12.33467 30043 ft 423 kts 291°
2026-05-07 18:12 48.82249 12.25120 30040 ft 423 kts 291°
2026-05-07 18:13 48.84366 12.16759 30045 ft 423 kts 291°
2026-05-07 18:13 48.86479 12.08379 30045 ft 423 kts 291°
2026-05-07 18:14 48.88583 12.00007 30045 ft 423 kts 291°
2026-05-07 18:14 48.90677 11.91639 30044 ft 423 kts 290°
2026-05-07 18:15 48.92772 11.83234 30045 ft 425 kts 290°
2026-05-07 18:15 48.94864 11.74809 30050 ft 425 kts 290°
2026-05-07 18:16 48.96939 11.66424 30045 ft 425 kts 290°
2026-05-07 18:16 48.99019 11.57986 30042 ft 425 kts 290°
2026-05-07 18:17 49.01090 11.49551 30038 ft 425 kts 290°
2026-05-07 18:17 49.03167 11.41069 30042 ft 427 kts 290°
2026-05-07 18:18 49.05237 11.32569 30046 ft 427 kts 290°
2026-05-07 18:18 49.07303 11.24052 30042 ft 427 kts 290°
2026-05-07 18:19 49.09350 11.15580 29751 ft 427 kts 290°
2026-05-07 18:19 49.10378 11.11313 29451 ft 427 kts 290°
2026-05-07 18:19 49.11407 11.07041 29150 ft 429 kts 289°
2026-05-07 18:19 49.12437 11.02750 28875 ft 431 kts 289°
2026-05-07 18:20 49.13467 10.98446 28614 ft 430 kts 289°
2026-05-07 18:20 49.14490 10.94159 28328 ft 428 kts 289°
2026-05-07 18:20 49.15507 10.89892 28054 ft 423 kts 289°
2026-05-07 18:20 49.16510 10.85671 27796 ft 422 kts 289°
2026-05-07 18:21 49.17513 10.81446 27537 ft 422 kts 289°
2026-05-07 18:21 49.18554 10.77259 27257 ft 421 kts 293°
2026-05-07 18:21 49.19921 10.73294 26992 ft 420 kts 301°
2026-05-07 18:21 49.21619 10.69658 26710 ft 420 kts 308°
2026-05-07 18:22 49.23581 10.66353 26415 ft 419 kts 312°
2026-05-07 18:22 49.24923 10.64226 26240 ft 419 kts 312°
2026-05-07 18:22 49.27643 10.59960 25790 ft 417 kts 313°
2026-05-07 18:22 49.29638 10.56832 25395 ft 414 kts 313°
2026-05-07 18:23 49.31642 10.53680 24985 ft 411 kts 313°
2026-05-07 18:23 49.33630 10.50539 24558 ft 408 kts 312°
2026-05-07 18:23 49.35524 10.47326 24143 ft 404 kts 309°
2026-05-07 18:23 49.37284 10.43958 23871 ft 404 kts 306°
2026-05-07 18:24 49.38941 10.40437 23895 ft 407 kts 304°
2026-05-07 18:24 49.40580 10.36860 23712 ft 407 kts 304°
2026-05-07 18:24 49.42199 10.33304 23442 ft 405 kts 304°
2026-05-07 18:24 49.43789 10.29808 23174 ft 403 kts 304°
2026-05-07 18:25 49.45410 10.26241 22887 ft 400 kts 303°
2026-05-07 18:25 49.46998 10.22740 22602 ft 398 kts 303°
2026-05-07 18:25 49.48582 10.19247 22324 ft 396 kts 303°
2026-05-07 18:25 49.50138 10.15809 22065 ft 395 kts 303°
2026-05-07 18:26 49.51705 10.12346 21786 ft 393 kts 303°
2026-05-07 18:26 49.53267 10.08890 21523 ft 392 kts 304°
2026-05-07 18:26 49.54825 10.05433 21270 ft 392 kts 304°
2026-05-07 18:26 49.56381 10.01983 21019 ft 391 kts 304°
2026-05-07 18:27 49.57932 9.98542 20756 ft 389 kts 304°
2026-05-07 18:27 49.59473 9.95121 20500 ft 388 kts 304°
2026-05-07 18:27 49.61011 9.91702 20150 ft 386 kts 304°
2026-05-07 18:27 49.62532 9.88311 19775 ft 383 kts 304°
2026-05-07 18:28 49.64044 9.84937 19392 ft 381 kts 304°
2026-05-07 18:28 49.65548 9.81576 19035 ft 379 kts 303°
2026-05-07 18:28 49.67043 9.78227 18659 ft 377 kts 303°
2026-05-07 18:28 49.68527 9.74898 18305 ft 374 kts 303°
2026-05-07 18:29 49.69983 9.71626 17904 ft 373 kts 303°
2026-05-07 18:29 49.71447 9.68331 17499 ft 371 kts 303°
2026-05-07 18:29 49.72903 9.65053 17092 ft 369 kts 303°
2026-05-07 18:29 49.74355 9.61783 16699 ft 367 kts 304°
2026-05-07 18:30 49.75798 9.58532 16306 ft 365 kts 304°
2026-05-07 18:30 49.77229 9.55300 15922 ft 363 kts 304°
2026-05-07 18:30 49.78655 9.52078 15534 ft 362 kts 303°
2026-05-07 18:30 49.80074 9.48867 15152 ft 361 kts 303°
2026-05-07 18:31 49.81486 9.45661 14778 ft 359 kts 304°
2026-05-07 18:31 49.82893 9.42462 14415 ft 357 kts 304°
2026-05-07 18:31 49.84290 9.39288 14057 ft 355 kts 304°
2026-05-07 18:31 49.85588 9.36037 13668 ft 353 kts 298°
2026-05-07 18:32 49.86611 9.32587 13266 ft 351 kts 291°
2026-05-07 18:32 49.87383 9.28998 12869 ft 349 kts 287°
2026-05-07 18:32 49.88075 9.25395 12471 ft 348 kts 286°
2026-05-07 18:32 49.88752 9.21800 12086 ft 346 kts 286°
2026-05-07 18:33 49.89427 9.18215 11701 ft 344 kts 286°
2026-05-07 18:33 49.90099 9.14660 11344 ft 342 kts 286°
2026-05-07 18:33 49.90763 9.11152 11113 ft 341 kts 286°
2026-05-07 18:33 49.91435 9.07605 11053 ft 342 kts 286°
2026-05-07 18:34 49.92107 9.04057 10992 ft 343 kts 286°
2026-05-07 18:34 49.92785 9.00505 10684 ft 338 kts 286°
2026-05-07 18:34 49.93447 8.97044 10379 ft 330 kts 286°
2026-05-07 18:34 49.94095 8.93651 10086 ft 323 kts 286°
2026-05-07 18:35 49.94726 8.90338 9782 ft 316 kts 287°
2026-05-07 18:35 49.95340 8.87110 9497 ft 308 kts 286°
2026-05-07 18:35 49.95929 8.83998 9230 ft 300 kts 286°
2026-05-07 18:35 49.96520 8.80875 8960 ft 293 kts 286°
2026-05-07 18:36 49.97087 8.77864 8677 ft 287 kts 286°
2026-05-07 18:36 49.97618 8.74942 8381 ft 282 kts 282°
2026-05-07 18:36 49.97809 8.71950 8132 ft 276 kts 269°
2026-05-07 18:36 49.97553 8.69018 8051 ft 273 kts 256°
2026-05-07 18:37 49.96958 8.66210 8049 ft 274 kts 251°
2026-05-07 18:37 49.96287 8.63432 8051 ft 274 kts 250°
2026-05-07 18:37 49.95606 8.60659 8051 ft 274 kts 250°
2026-05-07 18:37 49.94928 8.57884 8044 ft 274 kts 250°
2026-05-07 18:38 49.94254 8.55108 8045 ft 274 kts 250°
2026-05-07 18:38 49.93570 8.52348 8041 ft 273 kts 246°
2026-05-07 18:38 49.92490 8.50003 8031 ft 260 kts 227°
2026-05-07 18:38 49.91229 8.48099 8039 ft 246 kts 224°
2026-05-07 18:39 49.89974 8.46318 8047 ft 244 kts 223°
2026-05-07 18:39 49.88716 8.44554 8027 ft 241 kts 223°
2026-05-07 18:39 49.87477 8.42816 7735 ft 240 kts 223°
2026-05-07 18:39 49.86243 8.41083 7408 ft 240 kts 223°
2026-05-07 18:40 49.85008 8.39350 7117 ft 239 kts 223°
2026-05-07 18:40 49.83779 8.37627 6828 ft 238 kts 224°
2026-05-07 18:40 49.82784 8.35626 6495 ft 235 kts 250°
2026-05-07 18:40 49.82388 8.33233 6230 ft 231 kts 261°
2026-05-07 18:41 49.82146 8.30769 5928 ft 230 kts 263°
2026-05-07 18:41 49.81932 8.28302 5669 ft 231 kts 263°
2026-05-07 18:41 49.81720 8.25836 5408 ft 231 kts 263°
2026-05-07 18:41 49.81506 8.23369 5140 ft 231 kts 263°
2026-05-07 18:42 49.81291 8.20908 5003 ft 230 kts 263°
2026-05-07 18:42 49.81073 8.18437 5004 ft 231 kts 263°
2026-05-07 18:42 49.80862 8.15963 5002 ft 232 kts 263°
2026-05-07 18:42 49.80645 8.13475 4738 ft 233 kts 263°
2026-05-07 18:43 49.80550 8.10990 4456 ft 230 kts 282°
2026-05-07 18:43 49.81215 8.08793 4192 ft 227 kts 314°
2026-05-07 18:43 49.82543 8.07547 4021 ft 225 kts 345°
2026-05-07 18:43 49.84069 8.07085 4026 ft 226 kts 352°
2026-05-07 18:44 49.85632 8.06773 4014 ft 226 kts 353°
2026-05-07 18:44 49.87197 8.06492 4014 ft 226 kts 353°
2026-05-07 18:44 49.88768 8.06280 3998 ft 226 kts
2026-05-07 18:44 49.90240 8.07063 4000 ft 227 kts 33°
2026-05-07 18:45 49.91421 8.08702 4015 ft 228 kts 48°
2026-05-07 18:45 49.92333 8.10719 4008 ft 229 kts 60°
2026-05-07 18:45 49.93025 8.12958 4010 ft 230 kts 64°
2026-05-07 18:45 49.93664 8.15236 4005 ft 230 kts 66°
2026-05-07 18:46 49.94264 8.17541 4005 ft 229 kts 67°
2026-05-07 18:46 49.94819 8.19793 3983 ft 216 kts 68°
2026-05-07 18:46 49.95325 8.21916 3980 ft 202 kts 68°
2026-05-07 18:46 49.95787 8.23876 4014 ft 184 kts 67°
2026-05-07 18:47 49.96218 8.25707 4003 ft 178 kts 67°
2026-05-07 18:47 49.96644 8.27521 3853 ft 178 kts 68°
2026-05-07 18:47 49.97066 8.29321 3602 ft 176 kts 68°
2026-05-07 18:47 49.97476 8.31080 3373 ft 174 kts 68°
2026-05-07 18:48 49.97890 8.32849 3136 ft 174 kts 68°
2026-05-07 18:48 49.98303 8.34609 2896 ft 172 kts 68°
2026-05-07 18:48 49.98714 8.36361 2663 ft 172 kts 68°
2026-05-07 18:48 49.99123 8.38099 2439 ft 171 kts 68°
2026-05-07 18:49 49.99531 8.39830 2196 ft 169 kts 68°
2026-05-07 18:49 49.99936 8.41547 1967 ft 168 kts 68°
2026-05-07 18:49 50.00334 8.43227 1737 ft 160 kts 68°
2026-05-07 18:49 50.00697 8.44799 1471 ft 149 kts 69°
2026-05-07 18:50 50.00924 8.45787 1336 ft 145 kts 68°
2026-05-07 18:50 50.01285 8.47248 1153 ft 144 kts 68°
2026-05-07 18:50 50.01634 8.48714 982 ft 144 kts 69°
2026-05-07 18:50 50.01978 8.50180 806 ft 144 kts 69°
2026-05-07 18:51 50.02436 8.52101 568 ft 142 kts 69°
2026-05-07 18:51 50.02668 8.53065 425 ft 140 kts 68°
2026-05-07 18:51 50.02995 8.54420 351 ft 115 kts 70°
2026-05-07 18:51 50.03200 8.55282 354 ft 41 kts 69°
2026-05-07 18:52 50.03309 8.55651 359 ft 36 kts 55°
2026-05-07 18:52 50.03475 8.55907 358 ft 26 kts 40°
2026-05-07 18:52 50.03584 8.56048 366 ft 19 kts 40°
2026-05-07 18:52 50.03669 8.56212 365 ft 21 kts 66°
2026-05-07 18:53 50.03736 8.56494 365 ft 31 kts 70°
2026-05-07 18:53 50.03810 8.56798 366 ft 29 kts 69°
2026-05-07 18:53 50.03882 8.57103 369 ft 30 kts 70°
2026-05-07 18:53 50.03953 8.57402 377 ft 29 kts 69°
2026-05-07 18:54 50.04022 8.57688 378 ft 25 kts 70°
2026-05-07 18:54 50.04083 8.57943 380 ft 24 kts 69°
2026-05-07 18:54 50.04123 8.58098 379 ft 13 kts 54°
2026-05-07 18:54 50.04188 8.58171 377 ft 5 kts 27°
2026-05-07 18:55 50.04228 8.58198 379 ft 4 kts 15°
2026-05-07 18:55 50.04240 8.58201 379 ft 1 kts
2026-05-07 18:55 50.04245 8.58202 379 ft 0 kts
2026-05-07 18:56 50.04247 8.58202 379 ft 0 kts
2026-05-07 18:56 50.04282 8.58196 384 ft 10 kts 349°
2026-05-07 18:56 50.04351 8.58165 379 ft 10 kts 341°
2026-05-07 18:56 50.04430 8.58120 379 ft 14 kts 339°
2026-05-07 18:57 50.04515 8.58069 376 ft 9 kts 336°
2026-05-07 18:57 50.04529 8.57978 376 ft 12 kts 258°
2026-05-07 18:57 50.04503 8.57851 376 ft 8 kts 249°
2026-05-07 18:57 50.04491 8.57803 373 ft 5 kts 249°
2026-05-07 18:58 50.04471 8.57718 375 ft 12 kts 249°
2026-05-07 18:58 50.04431 8.57552 374 ft 21 kts 250°
2026-05-07 18:58 50.04374 8.57313 373 ft 25 kts 249°
2026-05-07 18:58 50.04312 8.57054 374 ft 27 kts 249°
2026-05-07 18:59 50.04242 8.56758 371 ft 30 kts 249°
2026-05-07 18:59 50.04176 8.56483 367 ft 26 kts 250°
2026-05-07 18:59 50.04147 8.56359 366 ft 8 kts 258°
2026-05-07 18:59 50.04173 8.56280 366 ft 9 kts 331°
2026-05-07 19:00 50.04208 8.56259 362 ft 0 kts 339°
2026-05-07 19:01 50.04215 8.56255 364 ft 4 kts 339°
2026-05-07 19:01 50.04262 8.56226 367 ft 8 kts 331°
2026-05-07 19:02 50.04285 8.56140 367 ft 11 kts 260°
2026-05-07 19:02 50.04269 8.56008 369 ft 14 kts 289°
2026-05-07 19:02 50.04354 8.55921 371 ft 15 kts 339°
2026-05-07 19:02 50.04461 8.55925 369 ft 16 kts 17°
2026-05-07 19:03 50.04560 8.56002 369 ft 16 kts 55°
2026-05-07 19:03 50.04604 8.56166 371 ft 17 kts 70°
2026-05-07 19:03 50.04641 8.56326 365 ft 15 kts 70°
2026-05-07 19:03 50.04659 8.56401 370 ft 2 kts 62°
2026-05-07 19:04 50.04669 8.56413 367 ft 2 kts 27°
2026-05-07 19:04 50.04682 8.56417 370 ft 3 kts
2026-05-07 19:04 50.04708 8.56414 368 ft 5 kts 345°
2026-05-07 19:04 50.04736 8.56399 371 ft 2 kts 340°
2026-05-07 19:05 50.04746 8.56394 372 ft 1 kts 340°
2026-05-07 19:05 50.04748 8.56392 372 ft 0 kts 340°